Погода в Магдебурге

Германия     52˚08′24″N   11˚37′10″E
темп.,
°C
ветер,
м/с
пор.,
м/с
влажн.,
%
обл.,
%
осадки,
мм/ч
давл.,
гПа
погр.,
м
5 декабря, сб
сб501:00−1˚вюв2490100 0.0 99594
04:00в3486100 0.0 994130
07:00−1˚юв238981 0.0 99565
10:00+2˚ю387799 0.0 998295
13:00+5˚ююз257692 0.0 1001299
16:00+2˚ююз1187100 0.0 100322
19:00+2˚вюв2292100 0.0 100427
22:00+2˚св1292100 0.0 100422
6 декабря, вс
вс601:00+3˚св4988100 0.1 1003238
04:00+2˚св2594100 0.0 1001183
07:00+2˚ссв1198100 0.0 100124
10:00+3˚юв0095100 0.0 100150
13:00+5˚ссв0089100 0.0 1001221
16:00+4˚в1194100 0.0 100122
19:00+4˚ссв2393100 0.0 100089
22:00+5˚всв31395100 0.0 999413
7 декабря, пн
пн701:00+8˚в7178293 0.0 997534
04:00+8˚вюв81675100 0.0 995755
07:00+9˚юв71574100 0.0 995740
10:00+8˚ю6117799 0.0 996604
13:00+8˚ю7116885 0.0 999998
16:00+5˚ю597041 0.0 1002770
19:00+3˚ююв477949 0.0 1005220
22:00+2˚ююв34860 0.0 1006105
8 декабря, вт
вт801:00+1˚ююв23893 0.0 100752
04:00+1˚юв12910 0.0 100722
07:00вюв119024 0.0 100822
10:00+2˚всв118198 0.0 100969
13:00+4˚всв127494 0.0 1009176
16:00+2˚всв118847 0.0 100922
19:00+1˚св129324 0.0 101122
22:00+1˚всв129614 0.0 101121
9 декабря, ср
ср901:00+1˚св229737 0.0 101130
04:00+1˚св2396100 0.0 101168
07:00+3˚всв2796100 0.0 1011237
10:00+4˚всв4990100 0.0 1011402
13:00+6˚в4879100 0.0 1011629
16:00+3˚в2490100 0.0 1010101
19:00+3˚в3790100 0.0 1011346
22:00+1˚в2295100 0.0 101168